Wind_Speed
14 14 14 13 12 11 11 10 10 11 11 10 10 9 9 9 8 8 7 7 7 7 8 8 8 8 9 9 10 10 10 10 11 12 13 13 13 13 12 13 13 13 14 15 15 16 16 15 15 14 13 13 13 13 14 15 16 16 15 15 14 13 9 5 6 5 4 3 1 3 7 11 13 15 16 18 20 20 19 19 19 15 13 13 12 11 10 9
13 13 13 13 11 10 10 9 9 10 10 9 9 8 8 8 8 7 7 6 6 6 7 7 7 7 8 8 9 9 9 10 10 11 12 11 11 11 11 11 12 13 14 15 15 15 15 14 14 13 13 13 13 14 15 16 16 16 16 15 13 11 8 6 9 6 3 2 1 2 5 8 10 10 14 20 20 19 21 20 18 16 14 14 14 13 10 10
13 13 12 12 11 10 9 8 8 9 9 8 8 7 7 7 7 7 6 5 5 5 6 6 6 6 6 6 7 7 8 8 9 10 11 11 10 10 9 10 11 12 13 14 14 14 14 13 12 13 13 13 14 14 15 16 15 16 16 15 12 10 9 9 11 9 5 4 1 2 4 5 7 8 11 18 22 21 21 21 20 16 15 15 15 12 9 10
12 11 11 11 9 8 8 7 7 8 8 7 7 6 6 6 6 6 6 5 5 5 5 5 4 4 4 5 5 5 6 6 7 9 9 9 10 9 8 9 10 11 12 12 13 14 13 12 12 13 13 13 14 14 15 16 15 15 14 13 10 10 10 10 11 9 6 5 2 1 4 3 3 5 7 13 21 22 21 21 17 11 11 14 13 11 10 11
10 10 9 9 8 7 7 7 7 7 7 7 6 6 6 6 6 6 5 5 4 4 4 4 4 3 3 3 3 4 4 4 5 6 7 7 8 8 8 8 8 9 10 11 12 13 12 12 12 12 13 13 14 13 14 15 15 13 12 12 9 9 10 9 10 10 8 6 1 0 3 2 2 3 4 7 12 16 18 17 13 6 5 7 8 8 9 11
8 7 7 7 7 6 6 6 5 6 6 6 6 6 5 6 6 6 5 5 4 3 3 3 3 3 2 2 1 1 2 2 2 3 3 4 5 7 7 7 7 8 8 10 11 12 11 11 10 11 12 12 13 13 13 14 13 11 11 10 8 9 10 9 11 11 9 6 1 1 3 3 3 1 2 5 4 6 8 10 10 8 6 5 4 6 8 10
6 5 5 6 6 6 6 5 5 5 5 6 5 5 5 5 6 6 5 5 4 2 2 2 2 1 1 1 1 1 1 2 1 1 1 2 3 5 6 6 7 7 8 10 10 10 10 9 9 10 11 11 12 12 11 10 10 10 10 9 8 10 10 9 11 11 9 6 3 2 3 4 3 0 3 4 4 6 7 8 10 9 9 9 8 8 8 10
4 4 4 4 5 5 5 5 5 5 5 5 5 5 5 5 5 5 5 5 4 2 2 1 0 1 1 2 3 3 2 1 2 2 2 1 1 3 5 5 6 7 8 9 10 9 8 8 10 10 11 11 10 9 8 8 8 9 8 7 7 9 9 9 11 10 8 7 5 3 3 5 3 1 3 1 3 8 7 8 11 11 11 11 11 10 10 11
3 3 4 4 4 4 4 4 4 4 4 5 5 5 5 5 5 5 5 5 4 3 2 0 1 2 3 4 5 4 4 3 4 4 4 3 4 5 6 6 7 7 8 9 10 9 8 9 9 9 10 9 9 7 6 7 7 7 7 5 5 7 8 9 11 9 8 7 6 4 3 5 3 0 2 2 5 10 7 8 10 11 10 10 12 11 10 11
3 3 4 4 4 4 4 4 4 4 4 4 4 4 4 4 5 5 5 4 3 3 2 1 2 3 5 5 5 5 5 6 6 6 5 3 4 6 8 9 9 9 10 12 12 9 9 9 6 7 9 8 8 7 6 8 6 4 5 4 4 6 7 8 11 9 6 7 8 6 4 4 2 1 2 2 5 9 8 8 8 9 9 9 11 11 11 11
3 4 4 4 4 4 4 4 5 4 4 4 4 4 4 4 4 4 4 3 3 2 1 2 3 5 6 6 5 5 5 7 7 6 4 3 4 6 9 11 12 13 14 14 12 8 9 9 6 6 8 8 9 8 6 7 7 5 4 4 3 5 6 7 10 9 6 7 8 6 4 1 1 1 2 2 4 6 7 7 7 7 8 8 9 11 11 11
5 3 4 5 5 5 5 5 5 4 4 4 4 4 3 3 3 4 3 3 2 1 2 3 6 8 7 5 5 5 6 7 7 5 3 2 4 6 9 12 13 15 15 14 11 8 7 7 7 6 7 8 8 7 5 6 7 6 4 3 2 4 7 8 9 9 8 7 6 4 2 1 1 1 3 3 4 6 7 8 9 9 9 9 10 12 11 12
8 5 4 4 5 6 6 6 6 5 4 4 4 3 3 3 3 3 3 2 1 1 4 6 9 9 7 5 6 6 7 7 6 5 4 4 5 6 9 11 13 15 16 13 11 9 6 6 7 5 5 7 7 6 5 5 6 4 2 2 3 5 9 10 9 10 9 6 5 4 3 2 1 3 3 2 5 7 10 11 12 12 10 11 13 13 12 13
8 7 6 5 4 4 5 6 6 6 5 4 4 3 3 2 2 2 2 2 1 2 5 9 11 9 6 6 7 8 7 7 7 5 5 6 6 7 9 11 13 15 15 12 10 8 6 5 5 4 5 5 5 4 3 4 4 3 1 1 3 5 7 11 11 12 11 6 5 4 4 4 4 5 4 2 3 6 10 12 12 11 10 12 14 14 13 13
7 8 7 6 6 5 5 5 5 5 5 5 4 4 3 3 2 1 1 1 0 3 6 10 12 10 8 7 7 8 8 7 7 6 6 7 8 8 9 12 14 14 13 11 10 7 5 5 5 3 3 4 4 4 3 2 2 2 1 1 3 3 5 9 10 11 10 6 5 5 5 6 6 6 4 3 3 4 7 10 10 9 9 11 13 14 14 14
6 7 7 7 7 6 6 6 5 4 3 4 5 5 4 4 3 2 2 1 1 4 7 10 12 10 9 8 7 7 8 8 8 7 7 8 8 9 9 11 13 12 10 9 9 7 4 4 5 3 2 3 5 6 5 3 3 2 2 2 3 4 5 6 6 8 9 6 5 6 6 8 8 7 5 4 4 3 4 7 9 10 9 9 11 13 14 14
5 6 7 7 7 7 6 6 6 5 4 3 3 5 6 6 5 3 3 3 2 5 7 9 11 10 8 7 7 7 7 7 7 8 8 8 8 8 9 10 12 12 9 6 6 7 5 5 6 5 3 3 5 7 7 5 4 3 2 2 3 4 5 5 4 6 7 6 4 4 6 9 11 11 10 8 7 6 4 5 6 8 9 8 10 13 15 14
5 6 6 6 7 6 6 6 6 5 5 4 3 3 5 6 6 5 5 4 4 6 7 9 11 9 8 8 8 8 7 6 7 8 8 7 6 8 8 9 10 11 10 7 6 7 7 7 8 7 6 5 5 7 6 4 4 5 4 3 3 4 5 4 3 4 5 6 5 5 5 7 11 12 12 10 8 7 6 6 5 5 6 7 9 14 16 16
5 5 6 6 6 6 5 5 5 5 5 3 3 3 3 4 5 6 7 6 6 7 7 9 10 8 8 10 9 8 7 6 6 8 8 7 7 7 7 7 8 9 9 9 8 8 9 8 9 8 6 5 5 6 6 6 7 6 5 5 4 4 4 3 3 4 5 6 6 5 5 6 8 11 13 12 9 8 8 8 7 6 6 6 8 13 17 18
6 6 6 6 6 5 4 4 4 4 3 2 2 3 3 3 3 4 7 8 8 8 7 9 10 8 9 10 8 7 5 4 5 7 8 7 7 6 5 6 6 7 8 9 9 9 9 8 8 7 5 5 6 4 4 7 8 6 5 5 4 4 4 3 4 5 5 5 6 6 7 6 7 8 10 12 11 9 10 10 9 8 7 6 5 9 15 18
7 7 6 6 6 5 4 3 3 3 3 2 2 3 3 4 3 2 5 8 9 9 8 9 9 8 9 9 7 6 4 4 5 6 6 6 6 4 3 5 7 8 8 9 10 9 9 7 5 4 4 4 5 4 3 4 7 7 6 5 4 4 3 4 5 5 6 7 8 9 9 8 8 8 6 7 10 11 11 11 9 10 10 7 5 5 9 15
6 6 7 7 6 5 4 3 4 4 3 3 4 5 6 6 5 3 0 5 9 11 8 8 10 9 9 8 6 5 5 5 6 7 6 6 6 4 2 2 5 8 8 8 9 9 8 6 3 2 2 2 4 5 4 4 6 7 6 5 4 3 3 3 4 5 7 9 10 11 12 11 9 9 7 6 7 12 14 12 11 12 12 10 8 6 7 10
6 6 6 6 6 5 4 4 5 5 4 5 5 6 7 8 6 5 3 4 8 10 9 10 11 9 7 6 5 5 6 5 5 7 7 5 5 3 3 2 2 4 6 7 7 8 6 3 4 4 1 3 4 4 4 3 5 7 6 5 5 4 3 3 3 5 8 10 12 13 13 14 12 11 8 7 6 9 13 14 14 14 14 13 12 10 9 10
6 6 5 5 5 5 4 4 4 5 5 5 6 6 6 7 7 6 6 6 7 10 11 11 11 8 5 5 4 4 4 3 5 6 5 4 3 2 2 2 2 3 4 5 5 5 3 2 3 2 0 2 3 4 5 5 5 6 7 7 6 5 4 4 5 7 10 11 13 13 13 13 13 11 8 7 7 7 9 11 12 14 15 15 15 13 13 12
6 5 5 4 4 4 4 3 3 4 4 4 5 5 5 6 7 6 5 6 7 10 10 10 9 7 5 3 2 2 1 3 5 5 5 4 3 3 3 2 2 2 2 3 4 4 3 2 3 2 2 2 3 4 5 6 7 6 7 7 5 4 4 5 6 8 9 9 9 10 8 5 5 6 5 5 7 7 8 9 10 12 14 16 16 17 17 16
6 5 5 4 4 3 3 3 3 2 3 3 4 4 4 5 5 4 5 7 8 9 8 7 6 6 4 1 1 2 1 3 6 6 6 4 2 3 3 2 1 0 1 3 5 5 5 4 4 4 3 4 4 5 5 5 6 6 6 5 3 3 4 5 6 7 7 7 7 7 6 5 6 7 6 5 6 8 10 11 12 13 14 16 17 18 19 20
6 5 4 4 4 4 3 3 3 2 1 2 2 3 3 3 3 2 6 7 7 6 6 6 4 4 5 2 2 3 2 4 6 6 6 4 2 1 1 1 0 1 2 4 5 3 4 4 5 5 5 4 5 5 5 5 6 6 5 3 3 4 5 5 5 5 5 6 7 7 7 8 10 9 8 9 8 9 11 12 15 17 18 19 20 21 22 23
5 5 5 4 4 4 4 3 3 2 1 1 2 1 1 2 1 3 5 3 3 5 5 4 4 4 5 2 2 3 4 4 4 5 6 4 3 2 1 1 1 3 4 6 6 4 5 6 7 7 7 5 3 3 2 3 6 5 4 3 4 4 5 6 6 5 5 5 6 8 8 7 6 6 9 8 6 6 6 7 10 13 16 18 21 24 25 26
5 5 5 5 4 4 4 4 3 3 2 2 2 2 1 1 1 3 2 1 2 4 4 4 4 4 3 2 2 2 3 4 3 4 4 4 3 3 4 3 5 7 7 9 9 8 8 8 8 9 10 7 4 2 0 2 4 4 3 4 5 6 6 6 6 6 5 5 7 8 7 6 5 6 8 6 3 2 2 2 3 5 6 9 13 18 22 24
6 5 5 5 4 4 4 4 4 4 3 3 2 3 1 0 2 2 1 2 3 5 5 5 5 3 2 3 3 2 3 2 1 2 3 3 4 5 6 6 7 9 10 10 10 7 6 7 8 9 10 9 7 5 2 3 4 4 4 5 6 6 6 5 5 6 4 4 8 10 9 7 5 6 8 7 3 3 2 3 4 1 2 5 6 11 15 17
6 6 5 5 4 4 4 4 4 4 4 4 3 3 1 1 3 2 1 4 5 6 6 5 5 4 2 3 4 4 4 1 1 2 3 5 6 7 8 8 8 8 10 10 8 6 6 9 10 7 8 10 10 8 6 4 4 5 6 7 6 4 3 3 3 4 4 4 6 10 10 8 6 5 7 7 6 6 4 5 6 4 5 7 7 7 8 12
7 6 6 6 5 4 4 4 4 5 5 5 4 3 2 2 3 2 3 6 5 5 6 5 5 4 3 4 4 4 4 3 3 4 5 6 7 9 10 10 9 9 9 9 9 10 12 12 11 8 6 11 11 10 9 7 6 8 9 9 6 2 0 2 2 2 4 6 7 7 6 7 9 11 11 11 10 7 5 6 7 8 9 8 9 9 6 7
8 7 7 7 6 5 4 3 4 4 5 6 6 5 3 2 3 4 5 6 5 6 6 4 3 2 2 3 3 3 3 3 3 4 5 6 7 8 10 11 11 11 10 11 12 12 13 11 8 7 6 11 13 13 12 9 8 10 12 13 9 3 1 2 2 1 4 6 8 7 5 5 9 10 10 9 7 6 5 5 7 8 10 10 9 9 7 6
9 8 8 8 7 6 5 3 3 4 5 6 6 6 5 3 3 5 6 6 5 6 4 3 2 1 2 3 3 3 3 4 4 4 4 5 7 8 7 7 9 9 8 10 10 7 7 7 4 5 4 7 12 14 14 12 11 11 14 15 12 9 6 4 3 3 3 2 5 7 5 3 5 5 5 6 5 5 5 5 6 8 10 11 10 9 8 6
10 10 10 9 8 7 6 4 3 3 4 6 7 8 7 5 4 6 7 6 6 5 4 3 2 1 2 3 4 4 4 3 3 4 5 5 6 6 5 4 5 6 6 6 6 5 6 7 7 8 6 5 9 11 13 14 13 12 13 15 15 15 13 8 5 5 3 1 3 6 5 6 7 7 7 6 4 5 6 6 7 7 10 10 10 9 8 6
11 11 11 11 9 8 7 6 4 4 4 5 7 9 8 7 7 7 7 6 6 5 4 3 2 2 2 4 5 4 2 2 2 3 3 4 4 4 3 2 2 2 3 4 5 4 5 7 7 8 7 7 9 9 11 12 12 11 13 16 17 16 15 11 5 4 4 2 4 6 6 7 8 8 8 7 6 7 7 7 7 8 9 9 8 9 9 7
12 12 12 11 11 10 9 8 7 5 5 5 7 8 8 9 9 8 8 6 6 6 5 3 2 3 3 3 5 4 4 4 3 3 3 3 3 4 3 3 2 1 1 3 4 5 7 9 9 10 11 12 13 13 13 13 13 12 13 15 15 13 13 11 4 2 2 3 4 7 9 9 8 6 9 11 9 9 9 9 9 9 10 8 7 9 10 9
14 14 13 12 12 11 11 11 10 9 8 8 8 8 9 10 10 10 9 7 6 6 6 4 3 4 3 3 4 6 7 6 5 6 5 3 4 5 5 4 3 3 2 2 3 3 5 7 8 11 13 14 15 15 13 13 15 16 15 14 13 9 8 10 6 1 3 3 1 5 8 11 13 12 12 13 12 12 12 10 9 9 9 7 7 8 9 9
14 15 14 13 12 11 11 11 12 12 12 11 11 10 10 11 11 11 10 9 8 8 7 6 5 5 5 5 6 8 8 8 7 7 5 3 5 6 7 6 4 3 3 3 4 4 4 5 6 8 10 11 11 13 13 13 15 16 16 15 14 12 9 10 9 6 4 3 1 3 4 8 14 16 14 13 13 13 13 11 10 10 8 6 6 6 6 7
13 15 14 14 12 11 11 12 12 13 14 14 13 11 11 11 12 12 12 11 11 10 8 8 8 7 7 8 8 9 9 9 8 7 5 4 6 6 8 9 8 7 7 6 6 7 7 5 6 8 9 9 9 11 13 15 14 15 15 15 16 17 13 10 11 10 6 2 2 3 3 5 12 16 16 15 15 16 15 12 11 10 9 7 6 6 6 6
13 14 14 14 13 13 13 13 13 13 14 14 13 12 12 12 12 12 12 12 11 11 10 9 9 9 9 9 10 10 10 10 10 9 8 8 8 8 8 9 10 9 9 10 11 11 9 8 9 10 11 10 10 10 12 13 13 13 15 15 16 16 13 8 8 11 10 6 4 4 3 5 10 13 14 17 18 19 18 16 14 12 10 9 9 9 8 7
13 13 14 14 14 14 14 15 15 14 14 13 13 12 12 13 13 13 13 13 12 12 12 12 11 11 11 11 11 10 10 10 11 10 9 9 10 10 9 9 11 12 14 15 15 13 11 10 12 14 14 15 15 13 12 12 12 13 14 14 13 13 13 10 7 8 11 9 6 4 3 5 10 11 13 17 20 21 20 19 16 13 11 11 11 10 10 9
13 13 14 14 15 15 15 15 16 16 14 13 12 12 13 13 14 14 14 14 13 13 13 13 12 12 12 12 11 11 11 11 11 11 11 11 11 12 12 12 13 13 13 12 11 11 10 8 10 11 12 15 17 15 14 13 13 14 15 15 15 14 14 14 12 10 9 10 8 4 2 6 12 14 16 18 21 22 21 20 18 14 12 10 10 11 11 11
12 13 14 15 15 15 16 16 17 16 15 13 12 12 13 14 15 16 16 15 14 14 13 12 13 13 13 13 13 13 13 12 9 9 10 11 12 12 12 13 13 13 12 12 11 12 11 8 8 7 7 9 10 10 10 11 12 15 16 16 16 16 15 15 15 13 10 10 10 7 3 6 12 17 20 22 23 23 21 19 18 15 13 12 12 11 11 12
12 12 13 14 15 15 16 17 18 17 16 14 13 13 14 15 16 17 16 16 16 15 15 14 14 15 14 14 14 14 14 13 10 9 10 11 11 12 12 12 13 13 13 13 13 13 12 12 11 8 6 6 6 7 9 10 12 13 14 14 13 13 13 13 13 12 9 9 12 10 5 5 11 17 21 23 24 24 21 18 17 17 16 15 15 14 14 14
13 13 12 13 14 15 17 19 19 18 17 16 15 16 16 16 17 17 17 17 17 17 16 15 15 14 14 14 14 14 14 14 13 11 10 11 12 12 13 13 13 13 13 13 12 12 12 13 13 13 13 13 13 14 16 17 17 16 15 14 12 12 13 13 14 14 11 10 15 17 13 12 13 15 19 22 24 24 23 21 18 18 18 17 17 18 18 18
13 14 14 13 12 13 15 18 19 19 18 18 17 17 17 17 17 17 16 16 16 16 15 15 15 14 14 14 14 14 14 14 14 13 13 13 14 14 15 15 15 14 12 11 11 10 12 14 15 16 18 18 18 19 19 20 22 22 21 19 18 17 18 18 18 17 15 14 14 15 16 19 18 16 17 21 23 26 26 23 20 20 20 20 21 20 21 21
12 13 14 14 12 12 13 15 16 18 18 18 17 17 17 16 16 15 15 15 16 16 15 15 15 15 14 14 14 13 13 13 13 14 14 14 14 14 14 14 14 13 11 10 10 11 13 16 17 18 19 20 20 20 20 21 22 24 23 22 21 20 20 21 21 20 20 20 19 16 18 23 22 18 17 18 21 24 26 25 25 25 25 25 24 23 22 22
11 12 13 14 14 15 14 14 15 16 17 17 17 17 17 16 16 16 16 16 15 16 16 15 15 14 13 14 14 13 13 12 12 12 12 12 13 13 13 13 12 12 12 12 13 14 15 16 17 18 19 20 20 20 20 20 22 24 25 24 23 22 22 22 24 24 24 27 27 24 25 28 26 20 19 20 22 25 27 28 29 29 28 26 24 23 23 23
9 10 11 12 13 14 15 15 15 16 16 16 16 16 17 17 17 17 17 16 15 14 15 14 13 13 13 13 13 13 13 14 13 13 13 13 13 13 13 13 13 13 14 15 16 17 17 16 15 16 18 21 21 22 22 21 23 26 26 24 23 24 25 26 28 29 28 30 30 27 30 33 29 22 22 25 26 26 27 27 27 27 27 25 23 23 23 23
8 9 10 10 11 12 13 13 14 14 14 15 15 15 15 15 15 16 15 15 14 13 14 13 12 12 13 13 13 13 13 14 14 14 14 14 14 14 13 14 14 15 17 17 18 18 17 16 16 15 17 21 22 21 22 23 26 30 30 28 28 29 30 31 32 31 30 31 31 31 35 37 31 24 25 27 27 26 25 25 26 26 26 25 24 24 23 24
7 8 9 9 10 11 12 12 13 12 12 12 12 12 12 12 13 14 13 13 13 13 13 13 13 13 13 13 13 13 13 13 13 13 14 13 14 14 14 15 16 17 19 20 19 18 17 16 16 14 14 17 16 14 15 17 19 22 25 28 32 34 34 34 35 34 32 32 32 34 36 36 30 26 27 28 27 25 23 24 26 26 26 26 26 25 25 25
Wind_Direction
285 283 281 282 286 291 295 300 305 308 311 314 314 314 316 319 319 316 310 304 298 290 284 277 271 267 263 261 260 258 257 254 252 252 251 250 251 249 246 245 241 238 236 233 230 230 231 231 233 233 228 221 220 222 226 232 234 236 236 233 236 238 242 232 199 197 223 227 202 243 247 232 227 229 224 215 214 213 213 218 220 215 211 213 215 218 200 183
283 281 278 275 276 282 289 297 303 307 311 312 312 316 320 323 322 318 310 303 299 295 290 284 280 276 272 269 265 261 258 255 252 251 252 249 249 248 244 242 238 233 231 228 226 226 225 223 225 225 222 216 217 219 221 228 232 234 235 236 239 240 233 205 194 199 237 255 240 261 254 227 218 220 216 212 214 214 214 214 215 217 218 219 222 223 208 189
281 278 272 267 267 274 283 292 300 305 310 313 313 319 324 326 326 322 316 308 301 296 293 292 291 288 281 273 266 262 257 254 252 249 251 248 246 245 242 240 236 231 228 225 223 221 220 218 217 219 216 213 216 218 221 226 231 233 235 240 242 238 221 200 202 212 251 287 335 278 249 221 214 212 210 212 214 215 215 213 213 219 223 221 223 223 213 195
280 273 266 261 261 269 278 287 296 304 310 313 315 319 325 328 329 328 325 317 305 297 296 298 297 293 284 274 266 261 253 249 249 246 247 247 244 241 239 237 234 232 228 223 219 216 215 212 210 214 212 212 216 218 222 225 230 232 235 241 243 238 219 204 212 218 248 283 335 298 234 219 209 202 208 212 213 214 215 216 217 228 231 225 226 223 209 195
278 271 263 258 259 265 273 281 293 303 310 313 314 319 325 330 332 335 334 326 310 300 298 296 297 295 292 283 270 262 250 242 253 250 248 249 244 237 233 231 231 230 226 216 211 209 208 205 205 209 209 212 216 219 224 226 230 232 237 240 242 240 217 206 216 218 238 256 290 269 229 216 172 187 206 199 211 217 214 209 201 199 217 224 232 220 203 192
279 269 259 255 257 263 269 277 289 300 308 311 312 318 326 333 335 339 340 331 320 305 289 285 297 308 319 318 294 275 227 211 263 265 257 255 245 233 222 219 222 221 217 210 205 200 199 199 200 206 207 211 214 218 224 229 233 234 238 239 243 241 218 207 216 221 235 232 202 234 224 188 149 193 193 159 170 189 187 180 170 173 175 167 187 201 197 189
280 266 257 255 258 264 267 272 282 294 305 309 311 317 326 334 337 342 343 338 331 307 279 277 304 327 358 23 71 83 163 186 334 340 303 272 248 224 207 205 209 206 203 203 197 187 184 189 196 202 203 207 211 216 223 232 235 233 235 238 245 240 226 219 219 224 231 220 217 224 190 162 137 92 171 143 133 143 143 152 162 180 181 164 162 174 183 185
286 267 257 256 261 267 268 271 279 289 301 308 312 317 325 334 339 344 345 346 343 316 290 269 296 43 63 84 91 82 94 91 17 31 39 59 174 185 185 190 193 190 189 189 179 165 163 177 192 198 197 203 206 209 219 226 232 232 234 240 240 240 241 231 219 221 228 226 223 202 172 170 149 102 176 203 182 166 160 166 171 182 185 171 161 170 183 187
294 268 257 259 265 270 271 274 277 283 297 307 313 317 324 332 337 342 346 352 355 341 331 212 143 114 107 99 87 74 65 50 41 49 55 84 124 146 158 170 176 170 169 165 154 146 153 170 186 193 191 196 195 192 205 213 225 234 240 250 240 242 249 230 215 217 229 228 207 174 151 166 161 92 206 253 202 185 185 185 184 186 189 175 163 174 186 187
297 268 260 265 271 275 277 278 279 281 292 305 313 318 323 330 336 340 344 348 354 356 10 122 139 127 113 97 83 71 64 53 45 46 46 74 108 132 144 151 156 153 152 145 135 138 158 164 169 184 181 180 178 172 189 204 210 220 234 248 244 240 238 222 212 213 223 208 184 166 154 146 138 260 237 238 201 198 201 198 193 186 183 174 164 174 181 182
320 278 265 267 274 278 279 280 282 284 289 300 310 318 325 332 335 338 343 341 345 9 58 124 128 124 112 96 87 80 73 61 48 43 36 60 100 127 142 147 147 145 143 136 131 141 166 166 146 159 171 168 169 170 180 198 202 212 230 226 224 224 216 214 211 204 198 187 174 167 168 148 97 212 251 247 211 211 214 212 213 202 192 186 176 180 182 178
3 323 283 272 271 273 275 279 283 286 287 292 302 314 326 332 334 336 339 334 334 53 109 128 127 124 113 101 102 96 85 73 58 53 54 73 107 130 144 152 150 144 139 135 140 148 158 168 154 144 158 161 161 166 179 188 196 217 236 206 181 195 196 203 208 197 187 186 184 178 189 239 230 255 287 261 236 227 227 231 234 231 222 211 195 189 186 180
16 6 340 304 282 273 271 273 276 280 283 285 291 302 319 324 327 331 332 330 328 133 137 135 133 127 113 106 112 106 95 88 79 79 97 106 116 132 144 151 149 144 142 144 155 154 143 160 168 154 148 160 161 160 178 186 192 209 226 184 153 166 181 189 195 192 191 193 192 196 220 230 247 294 301 257 235 229 229 236 239 236 227 214 201 193 188 183
14 12 7 357 333 304 286 276 271 269 271 277 283 290 299 309 313 315 318 326 327 168 156 143 138 132 119 117 121 118 112 110 108 108 124 130 131 139 146 148 147 149 153 157 161 157 151 156 162 164 164 174 177 175 188 193 195 197 189 153 143 153 174 182 186 190 196 203 204 226 251 243 256 276 279 268 245 235 235 238 240 235 222 209 201 196 190 181
8 8 6 5 0 350 334 315 297 279 268 267 270 276 278 280 281 272 279 319 199 178 169 153 146 137 130 132 134 133 130 129 129 131 142 148 147 149 154 155 154 159 165 171 171 162 162 165 158 173 202 216 221 226 243 231 205 193 170 152 151 165 178 182 189 197 204 222 242 256 261 252 257 263 274 280 258 251 248 244 240 233 220 210 204 199 190 178
359 3 5 6 5 2 357 352 347 333 301 274 264 262 262 260 253 234 222 233 174 184 180 164 153 142 138 140 140 141 141 141 142 144 151 159 163 162 163 165 163 168 175 183 190 186 179 181 183 201 240 247 249 255 269 264 228 199 169 139 141 162 172 178 191 203 212 233 255 258 252 253 262 267 277 277 259 268 267 250 242 237 232 222 211 204 193 184
350 358 4 7 8 8 4 2 4 5 2 333 286 263 257 251 240 228 212 200 187 187 186 175 161 150 148 146 141 144 146 150 152 155 162 167 172 174 177 177 174 179 184 189 204 210 210 210 212 232 276 290 276 264 266 261 233 209 180 145 146 163 165 167 182 205 220 237 264 285 269 260 265 266 267 264 258 263 263 250 240 238 239 232 219 209 201 196
348 356 2 6 7 7 6 6 10 15 16 8 334 289 271 258 241 228 211 199 190 184 186 183 168 156 155 150 142 143 146 153 157 159 167 167 168 179 192 195 191 194 200 208 223 231 232 234 233 245 280 302 287 260 249 227 198 190 178 168 164 173 178 181 203 226 239 256 276 305 299 275 267 260 258 257 253 253 245 230 229 240 246 242 228 215 209 208
356 358 1 2 1 360 1 4 11 18 21 14 343 324 320 298 258 236 222 210 194 181 181 181 172 163 162 155 146 145 145 151 157 161 167 166 166 177 193 201 207 212 218 226 235 239 240 244 245 254 276 281 262 248 229 197 180 173 176 181 175 185 202 209 243 267 275 278 281 294 301 294 277 258 252 249 242 239 233 223 229 247 263 268 245 222 214 216
10 8 6 4 358 353 351 354 5 17 18 11 344 340 352 343 304 253 232 216 199 186 182 180 177 171 166 158 147 140 139 146 156 162 166 170 173 179 191 202 214 222 228 234 238 243 244 244 250 258 260 249 242 234 208 198 190 180 186 197 199 208 221 242 274 294 301 293 291 294 296 308 310 282 259 248 237 228 223 223 231 246 260 281 271 232 219 220
14 15 15 13 7 357 351 351 0 4 3 9 2 0 12 13 5 305 241 219 202 193 187 179 173 171 167 156 140 132 134 151 158 159 161 167 168 174 203 216 223 224 230 235 238 244 244 240 245 248 243 238 233 210 181 194 192 186 187 189 203 220 240 263 273 287 300 302 303 303 300 308 321 316 298 260 233 216 213 220 232 246 255 265 276 253 225 222
2 8 13 16 14 10 11 15 15 12 14 22 23 26 31 33 32 24 260 199 192 189 187 174 163 165 167 157 143 137 142 151 155 151 149 154 158 152 150 193 217 217 221 226 231 239 243 240 212 180 198 204 206 197 184 192 188 185 187 190 209 227 258 272 264 279 300 308 310 309 301 297 303 309 311 298 243 216 215 225 238 250 253 254 259 256 236 228
344 350 358 9 13 16 22 26 29 30 31 31 34 41 41 39 42 45 75 139 173 177 173 166 163 167 171 163 146 141 149 158 162 156 147 147 158 151 113 111 178 196 208 213 221 231 233 212 164 145 140 177 192 202 203 210 198 194 198 200 212 234 269 271 265 295 311 313 313 313 305 293 289 290 287 285 268 234 229 237 247 253 253 253 255 250 240 235
331 335 340 348 358 8 15 22 33 37 39 39 41 48 43 40 44 51 78 111 148 163 160 160 167 176 173 163 147 139 148 155 167 171 162 153 162 165 125 92 125 150 184 203 223 236 227 196 187 179 167 193 207 222 222 231 230 227 223 221 234 260 286 292 296 311 317 316 316 317 310 294 283 284 279 264 257 248 242 246 252 254 253 253 255 256 253 247
324 325 327 330 334 345 354 9 29 40 46 45 44 49 41 35 37 46 75 98 131 157 163 163 173 179 163 144 144 142 114 137 167 183 175 169 182 185 171 127 124 139 181 218 257 265 266 256 237 262 301 260 254 244 243 243 241 249 245 235 245 266 291 305 308 314 316 315 323 325 314 292 272 284 286 252 233 230 232 238 245 248 249 250 253 257 258 255
321 320 318 319 315 320 332 343 2 30 59 57 52 54 50 38 27 38 80 99 121 142 156 164 174 182 169 130 154 149 78 137 170 180 174 181 205 198 192 162 123 51 260 279 287 277 280 276 258 266 281 281 275 263 266 255 237 244 249 238 238 264 284 296 299 306 309 306 315 316 295 276 286 288 277 255 237 231 234 234 235 239 243 246 248 250 252 253
319 315 313 312 306 306 314 321 334 355 51 92 86 74 62 39 18 77 100 101 121 133 142 155 159 163 157 135 149 151 108 134 167 179 177 191 209 201 208 164 66 329 292 305 309 292 290 281 263 259 258 272 285 283 279 251 226 231 243 247 253 266 275 279 291 302 300 297 297 289 275 276 284 288 291 285 271 258 251 245 241 240 243 244 246 247 249 251
321 314 308 305 305 302 296 293 300 311 299 167 147 138 100 47 66 137 114 96 140 145 142 149 138 138 148 136 135 145 117 117 152 179 189 211 228 224 230 205 299 307 310 311 312 317 313 298 275 256 245 252 273 292 294 230 219 224 232 243 246 255 268 274 287 296 289 289 284 274 276 279 274 294 312 300 273 262 251 244 244 244 246 248 249 250 249 249
321 316 306 300 302 297 284 277 270 268 268 230 196 189 163 68 143 153 123 102 162 155 153 157 151 145 154 154 143 147 125 107 123 160 185 220 240 239 245 255 278 292 300 302 307 314 311 301 285 257 241 238 242 259 291 170 196 209 221 237 245 254 268 277 282 281 273 268 269 273 277 275 275 299 300 277 259 281 231 247 270 252 258 263 261 261 258 257
317 314 307 299 295 286 279 273 259 254 256 250 225 196 190 204 173 145 113 156 145 145 155 160 166 167 166 167 159 146 140 119 118 169 206 241 259 264 270 277 281 288 292 298 310 316 310 309 299 267 237 228 237 249 239 185 190 200 213 229 244 256 268 279 274 261 251 248 258 267 267 260 270 292 272 248 273 323 315 337 340 318 314 320 300 279 269 266
309 308 301 292 290 284 279 273 258 248 242 244 241 218 224 211 172 129 137 166 139 135 146 140 147 150 140 166 171 160 161 192 235 241 255 259 270 277 283 286 285 292 295 299 308 307 312 325 319 290 237 222 230 241 249 244 222 222 228 228 239 255 263 269 249 225 227 245 256 260 254 241 237 252 254 258 297 316 309 327 341 334 323 330 334 318 284 264
299 299 294 286 285 283 274 268 259 251 243 243 251 247 246 216 197 190 167 165 149 144 148 137 140 137 119 150 173 182 196 228 237 253 266 265 272 275 276 278 276 284 291 294 298 296 299 309 313 304 248 221 228 240 249 252 238 239 240 232 234 242 199 247 234 213 240 252 259 258 238 223 239 254 261 273 297 312 311 325 335 333 327 327 336 337 319 279
290 290 290 285 283 276 266 260 252 248 247 248 254 252 237 213 204 190 166 160 159 160 161 156 155 147 142 162 177 190 214 238 236 253 270 272 282 282 277 275 272 271 273 280 290 296 298 299 305 307 263 220 224 235 242 244 239 241 241 234 229 201 140 237 226 244 262 251 248 238 212 229 253 257 261 271 291 307 311 323 331 336 336 335 340 339 331 321
283 283 283 281 280 275 265 255 243 239 244 248 251 243 226 217 205 186 176 171 172 175 181 188 178 157 168 178 181 192 216 227 222 245 276 282 286 289 285 278 272 268 266 271 277 281 286 286 295 311 286 227 223 228 238 249 251 249 244 239 231 222 227 236 221 243 265 241 208 199 194 237 244 243 262 271 282 288 289 297 311 335 342 339 342 338 322 322
278 280 278 275 275 273 265 257 250 243 244 245 244 237 227 223 213 198 198 197 192 196 205 214 238 240 203 200 199 198 207 217 233 259 276 283 279 281 283 275 272 271 259 255 253 241 252 264 273 286 283 253 238 234 238 247 251 248 238 230 230 233 237 237 235 237 232 137 180 197 215 240 238 253 267 255 242 250 267 283 293 323 335 330 332 329 305 287
272 275 277 277 275 271 266 264 263 256 254 249 243 240 234 228 220 211 212 211 208 215 221 234 266 233 200 207 205 199 219 267 295 282 275 284 272 258 258 254 268 279 252 236 237 231 235 246 259 269 265 255 259 261 250 243 241 235 225 224 233 239 235 228 226 220 210 226 225 214 228 237 239 254 244 217 212 227 251 274 280 301 312 307 313 320 310 291
269 269 271 275 275 272 265 260 258 255 257 258 255 253 243 231 225 219 218 222 225 234 239 245 244 218 208 203 208 231 293 306 314 312 300 287 249 215 203 208 216 230 251 256 251 243 246 249 249 252 259 262 266 272 267 251 240 232 226 230 238 239 229 220 208 108 184 239 235 216 225 225 217 223 213 203 207 222 241 259 267 284 289 283 300 314 311 305
268 269 269 269 269 269 265 257 252 252 257 264 266 263 248 235 228 223 224 228 232 244 252 251 242 235 235 228 241 278 303 309 313 315 312 283 237 215 202 209 225 227 242 276 278 262 257 263 260 255 260 264 263 265 263 251 241 237 237 240 238 231 217 205 196 172 209 231 245 216 227 229 220 215 208 204 209 222 233 241 252 266 267 267 294 306 300 298
263 267 269 269 267 267 266 262 256 255 259 264 267 263 251 241 233 226 226 229 234 244 251 254 257 255 251 259 276 293 302 307 311 313 310 270 239 226 213 214 230 245 264 283 293 305 298 274 267 262 262 265 259 253 247 242 238 236 238 240 233 230 226 209 206 213 214 214 221 209 223 232 225 221 216 213 215 218 221 224 235 244 240 244 269 274 272 271
258 260 265 267 267 266 266 265 261 258 259 261 262 260 253 244 235 228 228 232 239 248 254 258 263 264 263 269 280 291 297 301 304 305 295 260 248 247 235 236 248 258 269 278 287 305 305 275 261 264 263 263 258 247 242 242 239 233 232 232 227 226 226 221 219 217 209 193 187 207 222 220 218 218 218 222 221 219 217 216 217 219 215 216 225 223 222 228
259 256 256 259 260 259 260 262 261 258 258 258 258 257 253 245 237 232 233 237 243 251 257 261 264 266 269 273 278 283 288 293 295 295 285 266 259 259 251 249 256 260 270 282 288 295 294 277 269 269 266 267 267 258 249 247 245 237 231 228 226 224 221 221 223 211 207 209 188 189 226 214 209 217 224 224 221 219 221 218 211 208 207 206 209 210 208 204
261 253 250 251 252 253 254 255 255 255 255 255 253 250 249 243 236 234 237 243 247 252 257 262 266 267 268 270 273 276 279 282 284 282 275 270 266 262 257 257 265 273 281 288 292 294 291 279 271 270 267 268 272 271 261 254 250 240 233 230 229 230 227 230 240 216 209 218 204 192 244 216 209 226 237 228 219 215 218 218 212 209 209 208 210 211 210 207
261 253 248 247 246 248 249 250 252 253 255 255 251 246 244 242 238 238 242 246 249 254 258 263 267 267 268 269 269 270 271 271 271 268 264 263 264 262 261 264 270 276 281 285 288 290 290 279 270 272 268 264 268 270 263 257 253 248 245 243 240 241 238 240 253 251 227 217 205 202 237 201 206 229 236 229 222 217 215 214 211 213 217 220 222 221 220 217
261 254 249 245 244 245 247 249 251 254 255 254 251 247 246 246 246 247 251 254 256 260 263 264 265 265 267 269 269 268 265 262 260 258 256 256 257 259 261 264 268 271 273 276 278 281 281 272 269 278 278 266 263 265 261 255 254 254 255 254 251 253 252 249 254 257 249 233 225 231 241 199 210 226 228 225 223 218 215 215 215 219 225 230 236 239 240 238
260 256 251 247 243 242 243 246 249 251 252 250 248 247 247 250 252 253 257 261 262 264 266 266 266 267 267 268 268 264 260 257 255 251 251 254 256 258 261 264 267 271 273 274 275 278 276 270 266 262 258 255 249 255 266 268 265 262 259 258 258 255 249 247 249 245 240 239 232 230 241 227 221 224 225 225 223 220 220 223 225 229 236 242 248 255 259 259
258 256 252 249 246 241 240 242 245 248 250 248 248 247 247 250 255 256 259 262 263 264 266 266 267 268 267 266 265 260 257 257 257 253 252 255 256 259 262 265 269 272 275 276 276 278 275 270 267 261 257 260 262 265 269 270 268 266 264 261 256 249 245 248 250 243 240 249 242 236 246 256 244 231 231 235 234 231 231 232 236 242 248 254 259 263 267 268
259 254 250 248 246 240 236 238 241 244 248 248 247 248 249 250 254 256 257 259 262 265 268 270 270 269 267 265 261 259 258 259 259 257 256 256 257 259 261 263 267 270 273 275 275 274 272 269 268 267 264 264 265 264 262 261 261 261 261 259 256 257 258 255 251 250 251 255 251 243 248 255 251 243 243 246 246 243 240 240 247 256 262 267 270 272 272 271
263 256 250 246 244 240 236 237 238 241 244 247 247 249 251 251 251 254 257 260 264 267 269 270 271 270 265 261 258 257 257 257 256 256 256 255 255 255 256 258 262 265 268 273 275 276 274 271 271 271 268 265 263 262 258 257 258 259 259 260 259 259 260 255 253 255 256 257 260 264 265 264 261 254 249 250 254 254 252 253 259 265 270 273 274 273 273 271
269 261 255 250 248 247 244 242 241 242 243 246 249 252 254 255 257 259 262 265 267 269 269 266 265 264 260 256 255 253 250 247 245 246 247 248 249 248 252 258 262 266 271 277 282 283 279 276 275 272 268 264 260 258 258 256 257 258 256 256 256 255 253 253 254 255 256 257 261 268 271 268 266 262 258 259 263 264 263 263 265 267 269 270 269 267 265 264
280 270 262 257 255 255 254 252 249 248 248 250 254 257 258 262 266 266 266 267 266 265 265 261 257 257 257 255 254 252 249 248 248 248 246 248 251 254 257 261 266 271 277 283 288 288 283 278 275 272 269 265 259 256 257 257 259 260 256 252 251 251 251 251 252 253 254 257 262 266 265 264 263 264 264 266 269 270 268 266 265 266 267 264 261 259 257 256
294 282 274 268 264 263 263 263 260 258 258 257 257 259 261 263 266 267 267 267 263 259 259 258 255 255 255 255 255 255 254 256 258 260 260 261 263 264 266 268 272 278 284 289 291 288 283 278 276 275 272 271 269 264 262 262 264 264 260 254 251 250 251 252 254 256 257 260 265 264 261 263 267 265 264 269 273 274 270 265 264 263 260 255 251 250 251 252
315 299 286 278 271 268 267 268 268 268 267 264 262 261 261 262 262 263 264 265 262 259 257 259 260 260 259 259 260 259 257 259 261 263 268 270 271 273 275 276 281 286 290 290 287 283 279 276 276 275 272 276 279 273 267 268 268 264 261 258 254 253 254 255 256 258 259 262 264 262 261 265 268 264 264 271 275 275 267 259 258 255 249 244 243 245 247 250
Height
3098 3098 3098 3098 3098 3098 3097 3097 3097 3096 3096 3095 3095 3094 3094 3094 3093 3093 3092 3091 3091 3091 3091 3090 3090 3090 3090 3091 3091 3091 3092 3093 3093 3093 3093 3094 3095 3096 3097 3097 3098 3099 3099 3100 3101 3102 3103 3105 3106 3107 3109 3110 3111 3112 3112 3113 3113 3114 3115 3115 3116 3117 3119 3119 3120 3120 3121 3121 3120 3120 3119 3118 3118 3118 3119 3122 3123 3125 3127 3129 3131 3132 3133 3134 3136 3136 3138 3139
3097 3096 3096 3096 3097 3097 3096 3096 3096 3096 3095 3095 3094 3094 3093 3093 3092 3092 3091 3091 3090 3090 3090 3090 3090 3090 3090 3090 3090 3091 3091 3091 3092 3092 3092 3093 3094 3094 3095 3096 3097 3097 3098 3099 3100 3101 3102 3104 3105 3106 3107 3108 3109 3110 3111 3112 3112 3113 3114 3115 3116 3117 3118 3118 3118 3119 3119 3119 3119 3118 3117 3117 3117 3117 3118 3120 3122 3124 3126 3128 3129 3131 3132 3133 3134 3136 3137 3138
3095 3095 3095 3095 3095 3095 3095 3095 3095 3095 3094 3094 3093 3093 3093 3092 3092 3091 3090 3090 3090 3089 3089 3089 3089 3089 3089 3089 3089 3090 3090 3091 3091 3091 3091 3092 3093 3093 3094 3095 3095 3096 3097 3098 3099 3100 3101 3103 3104 3105 3106 3107 3108 3109 3110 3111 3112 3112 3113 3114 3115 3116 3116 3117 3117 3118 3118 3118 3118 3117 3117 3116 3116 3117 3118 3119 3121 3123 3124 3126 3128 3130 3131 3132 3134 3135 3137 3138
3093 3093 3093 3093 3094 3094 3094 3094 3094 3094 3093 3093 3093 3092 3092 3091 3091 3090 3090 3089 3089 3089 3089 3089 3088 3088 3088 3088 3089 3089 3089 3090 3090 3090 3091 3091 3092 3093 3093 3094 3094 3095 3096 3097 3098 3099 3100 3102 3103 3104 3105 3106 3107 3109 3110 3110 3111 3111 3112 3114 3115 3115 3115 3115 3116 3117 3117 3117 3117 3117 3116 3116 3116 3116 3117 3118 3120 3122 3124 3126 3128 3130 3131 3132 3133 3135 3136 3137
3092 3092 3092 3092 3093 3093 3093 3093 3093 3093 3093 3092 3092 3092 3091 3091 3090 3090 3089 3089 3088 3088 3088 3088 3088 3088 3088 3088 3088 3089 3089 3090 3090 3090 3090 3091 3091 3092 3093 3093 3094 3095 3096 3097 3097 3098 3100 3101 3102 3103 3105 3106 3107 3108 3109 3109 3110 3111 3112 3113 3114 3114 3114 3115 3115 3116 3116 3116 3116 3116 3116 3115 3116 3116 3117 3118 3120 3122 3124 3126 3128 3130 3131 3132 3133 3134 3135 3136
3091 3091 3091 3091 3092 3092 3092 3093 3092 3092 3092 3091 3091 3091 3091 3090 3090 3089 3089 3088 3088 3088 3088 3088 3088 3088 3088 3088 3088 3089 3089 3089 3089 3089 3090 3090 3091 3091 3092 3093 3093 3094 3095 3096 3097 3098 3099 3100 3102 3103 3104 3105 3106 3107 3108 3108 3109 3111 3112 3112 3113 3113 3113 3114 3114 3114 3115 3115 3115 3115 3115 3115 3115 3116 3118 3119 3120 3122 3124 3125 3127 3129 3130 3131 3133 3134 3135 3136
3090 3090 3090 3091 3091 3091 3092 3092 3092 3091 3091 3091 3091 3090 3090 3090 3090 3089 3089 3088 3088 3087 3087 3087 3087 3087 3088 3088 3088 3088 3089 3089 3089 3089 3089 3090 3090 3091 3091 3092 3093 3094 3095 3096 3097 3098 3099 3100 3102 3103 3104 3105 3106 3107 3107 3108 3109 3110 3111 3112 3112 3112 3112 3112 3113 3113 3114 3115 3115 3115 3115 3115 3116 3117 3118 3119 3120 3122 3124 3125 3127 3129 3130 3131 3132 3133 3135 3136
3089 3089 3090 3090 3090 3091 3091 3091 3091 3091 3090 3090 3090 3090 3090 3090 3089 3089 3088 3088 3088 3087 3087 3087 3087 3087 3088 3088 3088 3088 3089 3089 3089 3089 3089 3090 3090 3090 3091 3092 3093 3094 3095 3096 3097 3098 3099 3100 3101 3102 3103 3104 3105 3106 3107 3108 3109 3110 3110 3111 3111 3111 3111 3112 3112 3113 3114 3114 3115 3115 3115 3116 3116 3117 3119 3120 3121 3123 3124 3125 3127 3128 3129 3130 3131 3133 3134 3135
3089 3089 3089 3090 3090 3090 3090 3090 3090 3090 3090 3090 3090 3090 3090 3089 3089 3089 3088 3088 3087 3087 3087 3087 3087 3087 3088 3088 3088 3089 3089 3089 3089 3089 3089 3089 3090 3090 3091 3092 3093 3094 3095 3096 3097 3098 3099 3100 3101 3102 3103 3104 3105 3106 3107 3108 3109 3109 3110 3110 3111 3111 3111 3111 3112 3113 3114 3114 3115 3116 3116 3116 3117 3118 3119 3120 3121 3123 3124 3126 3127 3128 3129 3130 3131 3132 3134 3135
3089 3089 3089 3089 3089 3089 3089 3089 3089 3089 3090 3090 3090 3089 3089 3089 3089 3088 3088 3088 3087 3087 3087 3087 3087 3087 3088 3088 3089 3089 3089 3089 3089 3089 3089 3089 3090 3090 3091 3092 3093 3094 3095 3096 3097 3098 3099 3100 3101 3102 3103 3104 3105 3106 3107 3108 3109 3109 3110 3110 3110 3110 3110 3111 3112 3112 3113 3114 3115 3115 3116 3116 3117 3118 3119 3120 3122 3123 3124 3125 3127 3128 3129 3130 3130 3131 3133 3134
3089 3089 3089 3089 3089 3089 3089 3089 3089 3089 3089 3089 3089 3089 3089 3089 3088 3088 3088 3088 3087 3087 3087 3087 3087 3088 3088 3089 3089 3089 3089 3089 3089 3089 3089 3090 3090 3091 3091 3092 3093 3094 3095 3096 3097 3098 3099 3100 3101 3102 3103 3104 3105 3106 3107 3108 3108 3109 3109 3110 3110 3110 3110 3111 3111 3112 3113 3113 3114 3115 3116 3116 3117 3118 3119 3120 3121 3123 3124 3125 3126 3127 3128 3129 3130 3131 3132 3133
3089 3088 3088 3088 3088 3088 3088 3088 3088 3088 3089 3089 3089 3089 3088 3088 3088 3088 3088 3087 3087 3087 3087 3087 3088 3088 3089 3089 3089 3089 3089 3089 3089 3089 3090 3090 3091 3092 3092 3093 3093 3094 3095 3096 3098 3099 3100 3101 3102 3103 3104 3105 3106 3107 3107 3107 3108 3109 3109 3109 3109 3109 3109 3110 3111 3112 3112 3113 3114 3114 3115 3116 3117 3118 3119 3120 3121 3122 3123 3124 3125 3126 3127 3128 3129 3129 3131 3132
3089 3088 3087 3087 3087 3087 3087 3087 3088 3088 3088 3088 3088 3088 3088 3088 3088 3087 3087 3087 3087 3087 3087 3087 3088 3089 3089 3089 3089 3090 3090 3090 3090 3090 3091 3091 3091 3092 3093 3094 3094 3095 3096 3097 3098 3099 3100 3101 3103 3104 3104 3105 3106 3106 3107 3107 3108 3109 3109 3109 3109 3108 3109 3110 3110 3111 3112 3113 3113 3114 3115 3116 3117 3117 3118 3119 3120 3121 3122 3122 3123 3125 3126 3127 3127 3128 3130 3131
3089 3088 3087 3087 3087 3086 3086 3087 3087 3087 3087 3087 3087 3087 3087 3087 3087 3087 3087 3087 3087 3087 3087 3088 3088 3089 3089 3089 3090 3090 3090 3090 3090 3091 3091 3092 3092 3093 3094 3094 3095 3096 3097 3098 3099 3100 3101 3102 3103 3104 3105 3105 3106 3106 3107 3107 3108 3108 3108 3108 3108 3108 3109 3109 3110 3111 3111 3112 3112 3114 3115 3115 3116 3116 3117 3118 3118 3119 3120 3121 3122 3123 3125 3126 3126 3127 3129 3130
3089 3088 3087 3087 3086 3086 3086 3086 3086 3086 3086 3086 3086 3086 3086 3086 3087 3087 3087 3087 3087 3088 3088 3088 3088 3089 3089 3090 3090 3090 3090 3091 3091 3092 3092 3093 3093 3094 3094 3095 3096 3096 3097 3098 3099 3100 3101 3102 3103 3104 3105 3105 3106 3106 3107 3107 3108 3108 3108 3108 3108 3108 3108 3109 3109 3110 3111 3111 3112 3113 3114 3114 3115 3115 3116 3117 3117 3118 3119 3120 3121 3122 3123 3124 3125 3126 3128 3129
3089 3088 3087 3087 3086 3086 3086 3085 3085 3085 3086 3086 3086 3086 3086 3086 3086 3086 3087 3087 3087 3087 3088 3088 3088 3089 3090 3090 3090 3090 3091 3091 3092 3092 3093 3093 3094 3095 3095 3096 3096 3097 3098 3099 3099 3100 3102 3102 3103 3104 3104 3105 3105 3106 3106 3107 3107 3108 3108 3108 3108 3108 3108 3109 3109 3110 3110 3111 3111 3112 3113 3113 3113 3114 3115 3116 3116 3117 3118 3119 3120 3121 3122 3123 3124 3125 3126 3128
3088 3088 3087 3087 3086 3086 3086 3085 3085 3085 3085 3085 3085 3085 3085 3085 3085 3086 3086 3086 3087 3087 3088 3088 3089 3089 3090 3090 3090 3091 3091 3091 3092 3092 3093 3093 3094 3095 3096 3096 3097 3098 3098 3099 3100 3101 3101 3102 3103 3103 3104 3104 3105 3105 3106 3106 3107 3107 3107 3108 3108 3108 3108 3109 3109 3109 3110 3110 3111 3111 3112 3112 3112 3113 3114 3114 3115 3116 3116 3117 3118 3119 3120 3122 3123 3124 3125 3126
3088 3088 3087 3087 3086 3086 3086 3085 3085 3084 3084 3084 3084 3084 3084 3084 3085 3085 3086 3086 3086 3087 3088 3088 3089 3089 3090 3090 3091 3091 3091 3092 3092 3093 3093 3094 3094 3095 3096 3097 3097 3098 3099 3099 3100 3100 3101 3102 3102 3103 3103 3104 3104 3104 3105 3105 3106 3107 3107 3107 3108 3108 3108 3109 3109 3109 3109 3110 3110 3110 3111 3111 3111 3111 3112 3112 3113 3114 3115 3116 3117 3118 3119 3120 3121 3122 3123 3124
3088 3088 3087 3086 3086 3086 3085 3085 3084 3084 3084 3084 3083 3083 3083 3083 3084 3084 3085 3085 3086 3087 3087 3088 3089 3089 3090 3090 3091 3091 3092 3092 3092 3093 3093 3094 3094 3095 3096 3097 3097 3098 3099 3099 3099 3100 3100 3101 3102 3102 3103 3103 3103 3103 3103 3104 3105 3106 3106 3107 3107 3108 3108 3108 3108 3108 3108 3109 3109 3110 3110 3110 3109 3110 3110 3111 3112 3112 3113 3114 3115 3116 3117 3118 3119 3120 3121 3122
3088 3087 3087 3086 3086 3085 3085 3084 3084 3084 3083 3083 3083 3083 3083 3083 3083 3083 3084 3084 3085 3086 3087 3087 3088 3089 3089 3090 3091 3091 3092 3092 3092 3093 3093 3094 3094 3095 3096 3096 3097 3098 3098 3099 3099 3099 3100 3100 3101 3102 3102 3102 3102 3102 3102 3103 3104 3105 3106 3106 3106 3107 3107 3107 3107 3107 3107 3108 3108 3108 3109 3109 3108 3108 3108 3109 3110 3111 3111 3112 3114 3115 3115 3116 3117 3117 3119 3120
3088 3087 3087 3086 3086 3085 3084 3084 3083 3083 3083 3083 3083 3083 3083 3082 3082 3082 3082 3083 3084 3085 3086 3087 3088 3089 3089 3090 3091 3091 3092 3092 3092 3093 3093 3094 3094 3095 3096 3096 3097 3097 3098 3098 3098 3099 3099 3100 3100 3101 3101 3101 3101 3102 3102 3103 3103 3104 3105 3105 3106 3106 3107 3107 3107 3106 3106 3107 3107 3107 3108 3108 3107 3107 3107 3107 3108 3109 3110 3111 3112 3113 3113 3114 3115 3116 3116 3118
3088 3087 3087 3086 3086 3085 3084 3084 3083 3083 3083 3083 3082 3082 3082 3082 3082 3081 3081 3082 3083 3084 3086 3087 3088 3088 3089 3090 3091 3091 3092 3092 3092 3093 3093 3094 3094 3095 3095 3095 3096 3096 3097 3097 3098 3098 3098 3099 3100 3100 3100 3100 3101 3101 3102 3102 3103 3103 3104 3105 3105 3105 3106 3106 3106 3106 3106 3105 3106 3106 3106 3106 3106 3106 3106 3106 3107 3108 3109 3109 3110 3110 3111 3112 3113 3114 3115 3116
3088 3088 3087 3087 3086 3085 3084 3084 3083 3083 3082 3082 3082 3082 3082 3082 3081 3081 3081 3081 3082 3084 3085 3086 3087 3088 3089 3090 3090 3091 3091 3092 3092 3093 3093 3094 3094 3095 3095 3095 3095 3095 3096 3096 3097 3097 3098 3098 3099 3099 3100 3100 3100 3101 3101 3102 3102 3103 3103 3104 3104 3104 3105 3105 3105 3105 3105 3104 3104 3104 3104 3104 3105 3105 3105 3105 3106 3107 3107 3107 3108 3108 3109 3110 3111 3112 3113 3114
3088 3087 3087 3086 3086 3085 3085 3084 3083 3083 3082 3082 3082 3082 3082 3082 3081 3081 3081 3081 3082 3083 3085 3086 3087 3088 3089 3089 3090 3090 3091 3091 3092 3092 3093 3093 3094 3094 3094 3094 3095 3095 3095 3096 3096 3096 3097 3098 3098 3098 3099 3099 3100 3100 3101 3101 3101 3102 3102 3102 3103 3103 3104 3104 3104 3104 3103 3103 3102 3102 3101 3101 3102 3103 3103 3103 3104 3105 3105 3106 3106 3106 3107 3107 3108 3109 3110 3112
3087 3087 3086 3086 3086 3085 3085 3084 3084 3083 3083 3082 3082 3082 3082 3082 3082 3081 3081 3082 3082 3084 3085 3086 3087 3088 3088 3089 3089 3090 3090 3091 3091 3092 3092 3093 3093 3093 3094 3094 3094 3095 3095 3095 3095 3096 3096 3097 3097 3098 3098 3098 3099 3099 3099 3100 3100 3101 3101 3101 3102 3102 3102 3102 3102 3102 3102 3102 3101 3101 3100 3099 3100 3101 3102 3102 3102 3103 3104 3104 3104 3104 3104 3105 3106 3107 3108 3109
3086 3086 3086 3085 3085 3085 3085 3084 3084 3083 3083 3083 3082 3082 3082 3082 3082 3082 3082 3082 3083 3084 3085 3086 3087 3087 3088 3088 3089 3089 3090 3090 3090 3091 3092 3092 3093 3093 3093 3093 3094 3094 3094 3095 3095 3095 3095 3096 3096 3097 3097 3097 3098 3098 3098 3098 3099 3099 3099 3100 3100 3101 3101 3101 3101 3101 3101 3101 3100 3101 3100 3098 3098 3100 3100 3100 3101 3101 3102 3102 3102 3102 3102 3102 3103 3104 3105 3105
3086 3085 3085 3085 3084 3084 3084 3084 3083 3083 3083 3083 3083 3083 3082 3082 3082 3082 3082 3083 3083 3084 3085 3086 3086 3087 3087 3088 3088 3089 3089 3090 3090 3091 3091 3092 3092 3092 3093 3093 3093 3094 3094 3094 3094 3094 3094 3095 3095 3096 3096 3096 3097 3097 3096 3097 3098 3098 3098 3099 3099 3100 3100 3100 3100 3100 3100 3100 3099 3099 3100 3098 3097 3098 3098 3099 3099 3099 3099 3099 3099 3099 3099 3100 3101 3101 3102 3102
3085 3085 3084 3084 3084 3083 3083 3083 3083 3083 3083 3083 3083 3083 3082 3082 3082 3082 3082 3083 3084 3084 3085 3085 3086 3086 3087 3087 3088 3088 3089 3089 3090 3090 3091 3091 3092 3092 3092 3093 3093 3093 3093 3093 3093 3093 3094 3094 3094 3094 3095 3095 3096 3095 3095 3095 3096 3097 3097 3098 3098 3099 3099 3099 3099 3099 3099 3099 3099 3098 3098 3097 3095 3096 3097 3096 3096 3096 3096 3096 3096 3097 3097 3098 3098 3098 3098 3099
3085 3084 3084 3083 3083 3083 3082 3082 3082 3082 3082 3082 3082 3082 3082 3082 3082 3082 3082 3083 3084 3084 3084 3085 3085 3086 3086 3087 3087 3088 3088 3089 3089 3089 3090 3091 3091 3091 3092 3092 3092 3092 3092 3092 3092 3092 3092 3093 3093 3093 3093 3094 3094 3095 3094 3095 3095 3095 3096 3097 3097 3097 3098 3098 3098 3098 3098 3098 3097 3097 3098 3097 3094 3095 3095 3095 3095 3095 3095 3095 3095 3095 3096 3096 3096 3095 3095 3095
3084 3084 3083 3082 3082 3082 3082 3082 3082 3082 3082 3082 3082 3082 3082 3082 3082 3082 3083 3083 3083 3083 3084 3085 3085 3086 3086 3086 3086 3087 3088 3088 3088 3089 3089 3090 3090 3090 3091 3091 3091 3091 3091 3091 3091 3091 3091 3091 3091 3091 3091 3092 3093 3093 3094 3094 3094 3094 3095 3095 3096 3097 3097 3097 3097 3097 3098 3097 3096 3095 3096 3096 3094 3093 3093 3093 3094 3094 3094 3094 3094 3094 3095 3095 3094 3093 3092 3092
3083 3083 3083 3082 3081 3081 3081 3081 3081 3081 3081 3081 3081 3082 3081 3081 3082 3082 3082 3083 3083 3083 3084 3084 3085 3085 3085 3086 3086 3087 3087 3088 3088 3088 3089 3089 3089 3090 3090 3090 3090 3090 3090 3090 3090 3090 3090 3090 3090 3089 3090 3090 3091 3092 3092 3093 3093 3094 3094 3095 3095 3096 3096 3096 3096 3097 3097 3095 3094 3094 3095 3095 3094 3092 3092 3092 3092 3093 3093 3093 3093 3093 3093 3093 3092 3091 3090 3090
3083 3082 3082 3081 3081 3080 3080 3080 3080 3080 3080 3081 3081 3081 3081 3081 3081 3081 3081 3082 3082 3083 3083 3084 3084 3084 3085 3085 3086 3086 3087 3087 3087 3088 3088 3088 3088 3089 3089 3089 3089 3089 3089 3089 3089 3089 3089 3089 3089 3088 3088 3089 3090 3090 3091 3091 3092 3093 3093 3094 3095 3095 3096 3096 3095 3096 3095 3093 3093 3093 3094 3094 3092 3091 3091 3091 3091 3092 3092 3092 3091 3091 3091 3091 3091 3090 3089 3088
3082 3081 3081 3081 3080 3080 3079 3079 3079 3079 3079 3080 3080 3080 3080 3081 3080 3080 3081 3081 3082 3082 3083 3083 3083 3084 3084 3085 3085 3086 3086 3086 3087 3087 3087 3087 3087 3087 3087 3087 3087 3088 3088 3088 3088 3088 3087 3087 3087 3087 3087 3088 3088 3089 3089 3090 3091 3091 3091 3092 3093 3094 3097 3097 3095 3095 3094 3091 3091 3093 3093 3092 3090 3090 3090 3090 3090 3090 3090 3090 3090 3090 3090 3089 3089 3088 3088 3087
3080 3080 3080 3080 3079 3079 3079 3079 3079 3079 3079 3079 3079 3079 3080 3080 3080 3080 3080 3081 3081 3082 3082 3082 3083 3083 3084 3084 3085 3085 3085 3086 3086 3086 3086 3086 3086 3086 3086 3086 3086 3086 3087 3087 3087 3088 3087 3086 3086 3086 3086 3086 3087 3087 3088 3088 3089 3090 3090 3091 3091 3091 3093 3094 3092 3092 3091 3089 3091 3092 3092 3090 3088 3088 3088 3088 3089 3088 3088 3088 3089 3089 3088 3088 3087 3087 3087 3086
3079 3079 3079 3078 3078 3078 3078 3078 3078 3078 3078 3078 3078 3078 3079 3079 3079 3079 3079 3080 3080 3081 3081 3082 3082 3083 3083 3083 3084 3084 3085 3085 3085 3085 3085 3085 3085 3085 3084 3084 3084 3085 3085 3086 3086 3086 3086 3086 3085 3085 3085 3085 3086 3086 3087 3087 3087 3087 3088 3089 3089 3088 3089 3089 3089 3089 3089 3089 3090 3090 3089 3088 3087 3088 3087 3087 3087 3087 3087 3087 3087 3087 3087 3087 3086 3086 3086 3086
3078 3077 3077 3077 3077 3077 3077 3077 3077 3077 3077 3077 3077 3077 3077 3078 3078 3078 3079 3079 3079 3080 3080 3081 3081 3082 3082 3082 3083 3083 3084 3084 3084 3084 3084 3084 3084 3084 3084 3084 3084 3084 3084 3084 3085 3085 3085 3084 3084 3084 3084 3084 3084 3085 3085 3085 3085 3085 3086 3086 3086 3086 3087 3087 3088 3088 3089 3089 3087 3087 3087 3086 3086 3087 3086 3086 3086 3086 3086 3086 3086 3086 3086 3086 3086 3085 3085 3085
3076 3076 3076 3075 3075 3076 3076 3076 3076 3076 3076 3077 3077 3076 3076 3076 3077 3077 3078 3078 3078 3079 3079 3080 3080 3081 3081 3082 3082 3082 3083 3083 3083 3083 3083 3083 3083 3083 3083 3083 3083 3083 3083 3083 3084 3084 3083 3083 3083 3083 3083 3083 3083 3083 3083 3083 3084 3084 3084 3084 3084 3085 3086 3086 3087 3088 3089 3088 3085 3085 3085 3085 3085 3085 3084 3085 3085 3085 3085 3085 3085 3085 3085 3085 3085 3085 3084 3084
3074 3074 3074 3074 3074 3074 3074 3074 3075 3075 3075 3075 3075 3075 3075 3075 3076 3076 3077 3077 3077 3078 3078 3079 3079 3080 3080 3081 3081 3081 3081 3082 3082 3082 3082 3082 3082 3082 3082 3082 3082 3082 3083 3083 3083 3082 3082 3082 3081 3081 3081 3081 3081 3081 3081 3081 3082 3082 3082 3082 3083 3083 3083 3084 3085 3086 3086 3086 3085 3083 3083 3082 3082 3082 3083 3083 3084 3084 3084 3084 3084 3084 3084 3083 3084 3084 3084 3083
3072 3072 3072 3072 3072 3072 3072 3073 3073 3073 3073 3074 3074 3074 3074 3074 3074 3075 3075 3076 3076 3076 3077 3078 3078 3079 3079 3079 3080 3080 3080 3081 3081 3081 3081 3081 3080 3081 3081 3081 3081 3082 3082 3082 3082 3081 3081 3081 3080 3079 3080 3079 3079 3080 3080 3079 3080 3080 3080 3080 3081 3081 3081 3081 3081 3081 3081 3083 3083 3082 3081 3080 3079 3080 3081 3082 3083 3083 3083 3083 3083 3083 3083 3082 3082 3082 3083 3083
3070 3070 3070 3070 3070 3071 3070 3070 3071 3071 3071 3072 3072 3072 3072 3073 3073 3073 3074 3074 3075 3075 3076 3076 3077 3077 3077 3078 3078 3078 3079 3079 3079 3079 3079 3079 3079 3079 3080 3080 3080 3080 3080 3080 3080 3080 3080 3080 3079 3078 3078 3079 3078 3078 3078 3078 3078 3078 3078 3078 3079 3079 3079 3079 3079 3078 3078 3080 3081 3081 3079 3077 3077 3078 3079 3080 3081 3082 3082 3082 3082 3082 3082 3081 3081 3081 3081 3082
3068 3068 3068 3068 3068 3069 3069 3069 3069 3069 3069 3070 3070 3071 3071 3071 3072 3072 3072 3073 3073 3074 3074 3074 3075 3075 3076 3076 3077 3077 3077 3077 3077 3078 3078 3077 3078 3078 3078 3078 3079 3079 3079 3079 3079 3079 3079 3078 3078 3077 3077 3077 3077 3077 3077 3077 3077 3077 3077 3076 3077 3077 3077 3077 3076 3076 3076 3076 3077 3077 3076 3074 3075 3077 3078 3079 3079 3080 3080 3080 3080 3081 3080 3080 3080 3080 3080 3081
3066 3066 3066 3066 3066 3066 3067 3067 3067 3067 3067 3068 3068 3069 3069 3070 3070 3071 3071 3071 3072 3072 3072 3073 3073 3074 3074 3074 3075 3075 3075 3075 3075 3076 3076 3075 3076 3076 3076 3076 3077 3077 3077 3077 3077 3077 3077 3077 3076 3076 3076 3076 3075 3075 3075 3075 3075 3075 3075 3075 3075 3075 3076 3076 3074 3074 3075 3074 3074 3075 3074 3073 3074 3076 3076 3077 3078 3078 3078 3079 3079 3079 3079 3079 3079 3079 3079 3080
3063 3063 3063 3064 3064 3064 3064 3065 3065 3065 3065 3066 3067 3067 3067 3068 3068 3069 3069 3070 3070 3070 3071 3071 3071 3071 3072 3072 3073 3073 3073 3074 3073 3074 3074 3073 3074 3074 3074 3075 3075 3075 3075 3075 3075 3075 3075 3075 3074 3074 3074 3074 3073 3073 3073 3073 3073 3073 3073 3073 3073 3073 3073 3074 3073 3073 3073 3072 3073 3074 3073 3071 3072 3074 3074 3075 3076 3076 3077 3076 3077 3077 3077 3078 3078 3078 3078 3078
3061 3061 3061 3061 3062 3062 3062 3062 3062 3063 3063 3064 3065 3065 3065 3066 3066 3067 3067 3068 3068 3068 3069 3069 3069 3069 3070 3070 3070 3071 3071 3072 3071 3071 3072 3072 3072 3072 3072 3073 3073 3073 3074 3074 3073 3073 3073 3073 3073 3073 3072 3072 3072 3071 3071 3071 3071 3071 3071 3071 3071 3071 3071 3072 3071 3072 3071 3070 3071 3071 3069 3069 3071 3072 3072 3073 3074 3074 3074 3074 3075 3075 3075 3076 3076 3076 3077 3077
3058 3058 3058 3059 3059 3060 3060 3060 3060 3061 3061 3062 3063 3063 3063 3064 3064 3064 3065 3065 3066 3066 3066 3067 3067 3067 3067 3068 3068 3068 3069 3069 3070 3070 3070 3070 3070 3070 3070 3071 3071 3071 3071 3072 3071 3071 3071 3071 3071 3071 3071 3071 3070 3070 3069 3069 3069 3069 3069 3069 3069 3069 3069 3069 3069 3069 3069 3068 3069 3069 3068 3069 3070 3070 3071 3072 3072 3072 3072 3073 3073 3073 3073 3074 3074 3074 3075 3075
3056 3056 3056 3056 3057 3057 3057 3058 3058 3058 3059 3060 3060 3061 3061 3062 3062 3062 3063 3063 3063 3063 3064 3064 3064 3065 3065 3065 3066 3066 3066 3067 3068 3068 3068 3068 3068 3068 3069 3069 3069 3069 3069 3069 3069 3069 3069 3068 3069 3069 3069 3068 3068 3068 3068 3067 3067 3067 3067 3067 3067 3067 3067 3067 3067 3067 3067 3067 3066 3066 3068 3068 3069 3070 3070 3070 3071 3071 3071 3071 3071 3071 3071 3072 3072 3072 3072 3072
3054 3054 3054 3054 3055 3055 3055 3055 3056 3056 3057 3057 3058 3058 3059 3060 3060 3060 3060 3060 3061 3061 3061 3062 3062 3062 3063 3063 3064 3064 3064 3065 3065 3066 3066 3066 3067 3067 3067 3067 3067 3067 3067 3067 3067 3067 3066 3066 3066 3066 3066 3066 3066 3066 3066 3065 3064 3064 3064 3064 3065 3065 3064 3064 3064 3064 3066 3065 3063 3063 3067 3067 3066 3068 3069 3068 3069 3069 3068 3069 3069 3069 3069 3069 3069 3070 3070 3070
3051 3051 3051 3052 3052 3052 3053 3053 3053 3054 3054 3055 3055 3056 3056 3057 3058 3058 3058 3058 3058 3059 3059 3059 3060 3060 3061 3061 3061 3062 3062 3062 3063 3063 3064 3064 3064 3065 3065 3065 3065 3065 3065 3065 3065 3065 3064 3063 3063 3063 3063 3063 3063 3063 3063 3062 3062 3061 3061 3061 3062 3062 3061 3061 3062 3062 3063 3062 3060 3061 3063 3063 3063 3066 3067 3067 3067 3066 3066 3066 3066 3066 3066 3066 3066 3066 3067 3067
3049 3049 3049 3050 3050 3050 3051 3051 3051 3052 3052 3053 3053 3053 3054 3054 3055 3055 3055 3056 3056 3056 3057 3057 3058 3058 3058 3059 3059 3059 3060 3060 3060 3060 3061 3062 3062 3062 3062 3062 3062 3062 3063 3063 3063 3062 3062 3061 3060 3061 3060 3060 3060 3060 3059 3059 3059 3058 3058 3058 3058 3059 3058 3058 3059 3059 3059 3058 3057 3059 3059 3058 3060 3063 3064 3064 3064 3063 3063 3063 3063 3063 3063 3063 3063 3063 3063 3063
3047 3047 3047 3048 3048 3048 3048 3049 3050 3050 3050 3051 3051 3051 3052 3052 3052 3052 3053 3054 3054 3054 3055 3055 3056 3056 3056 3057 3057 3057 3057 3057 3058 3058 3059 3059 3059 3060 3060 3060 3060 3060 3060 3060 3060 3059 3059 3058 3058 3058 3057 3056 3057 3057 3056 3056 3056 3053 3053 3055 3055 3055 3055 3054 3054 3054 3055 3054 3054 3056 3054 3052 3055 3060 3060 3060 3060 3059 3059 3059 3059 3059 3059 3059 3059 3059 3060 3060
3046 3046 3046 3046 3046 3046 3046 3047 3047 3048 3048 3049 3049 3050 3050 3050 3050 3050 3051 3051 3052 3052 3052 3053 3054 3054 3054 3054 3055 3055 3056 3056 3056 3056 3056 3057 3057 3057 3057 3057 3057 3057 3057 3057 3057 3056 3056 3055 3055 3055 3054 3051 3052 3054 3053 3053 3052 3048 3048 3050 3051 3051 3050 3050 3050 3051 3051 3051 3052 3052 3048 3047 3052 3056 3056 3055 3056 3056 3056 3056 3055 3055 3055 3056 3056 3056 3056 3056
3045 3045 3044 3045 3045 3045 3045 3045 3045 3046 3046 3047 3047 3048 3048 3048 3048 3048 3049 3049 3049 3050 3050 3051 3051 3052 3052 3052 3053 3053 3054 3054 3054 3054 3054 3054 3055 3055 3055 3054 3055 3055 3054 3054 3053 3053 3053 3052 3052 3053 3051 3048 3049 3050 3050 3050 3048 3042 3042 3046 3047 3046 3046 3046 3046 3047 3048 3049 3048 3046 3044 3045 3048 3051 3051 3051 3052 3052 3052 3052 3051 3051 3052 3052 3052 3052 3052 3052